Tracking 19827 objects as of 21-Aug-2019
HD Live streaming from Space Station
objects crossing your sky now

THORAD DELTA 1 DEB

Track THORAD DELTA 1 DEB now!
10-day predictions


NORAD ID: 8404
Int'l Code: 1974-089CG
Perigee: 1,241.8 km
Apogee: 1,334.7 km
Inclination: 101.3 °
Period: 111.2 minutes
Semi major axis: 7659 km
RCS: 0.0827 m2 (small)
Launch date: November 15, 1974
Source: United States (US)
Launch site: AIR FORCE WESTERN TEST RANGE (AFWTR)

Note: This is SATELLITE DEBRIS
aabbcc
Your satellite tracking list
Your tracking list is empty




NASA's NSSDC Master Catalog

Two Line Element Set (TLE):
1  8404U 74089CG  19233.39768927  .00000701  00000-0  26424-2 0  9991
2  8404 101.2705 170.0052 0060628 262.9161 219.7362 12.95155047 74985
Source of the keplerian elements: AFSPC